Orbital Elements at Epoch 2459200.5 (2020-Dec-17.0) TDB
Reference: JPL 22 (heliocentric ecliptic J2000)
Element | Value | Uncertainty (1-sigma) | Units |
e | .2443535566461501 | 3.8707e-08 | |
a | 2.997996040480095 | 1.603e-08 | au |
q | 2.265425045177709 | 1.1468e-07 | au |
i | 2.33616133043044 | 4.2052e-06 | deg |
node | 166.3035825467805 | 0.00011226 | deg |
peri | 154.1689179928609 | 0.00011262 | deg |
M | 136.2828891465436 | 1.2025e-05 | deg |
tp | 2458482.732416579584 (2018-Dec-30.23241658) | 5.9825e-05 | TDB |
period | 1896.029146795521 5.19 | 1.5207e-05 4.163e-08 | d yr |
n | .1898704988836464 | 1.5228e-09 | deg/d |
Q | 3.730567035782482 | 1.9947e-08 | au |
|
| | Orbit Determination Parameters
Additional Information
|